Simultaneous Nadir Overpasses (SNOs) Predictions

Prediction of SNOs between GOES-16 and TERRA Satellite Orbit:

Table of predicted SNOs for the next 14.0 days since TLE Epoch: 3/16/2024
Index Date Time (GOES-16) GOES-16 Lat,Lon TERRA Lat,Lon Distance(km) Time Diff (sec)
1 03/18/2024 02:42:53 -0.05, -75.20 0.40, -73.02 248.06 80
2 03/18/2024 15:02:54 0.05, -75.22 0.60, -77.89 303.66 80
3 03/20/2024 14:48:33 0.04, -75.23 -0.24, -73.79 164.14 80
4 03/21/2024 03:08:42 -0.04, -75.23 -0.79, -78.68 393.37 80
5 03/23/2024 02:49:01 -0.04, -75.25 0.08, -74.58 75.68 80
6 03/23/2024 15:09:03 0.04, -75.27 0.92, -79.46 475.63 80
7 03/25/2024 14:52:02 0.04, -75.30 0.03, -75.36 6.02 80
8 03/27/2024 14:37:40 0.04, -75.34 -0.82, -71.25 465.29 80
9 03/28/2024 02:57:49 -0.04, -75.34 -0.19, -76.15 91.48 80
10 03/30/2024 02:38:07 -0.03, -75.38 0.68, -72.04 379.47 80
